Location: Newark
(25.1987°N, 100.3705°W)
Time: 17:21:47
(UTC+00:00)

Envisat - Pass Details

Date: 10 August 2021
Orbit: 764 x 766 km, 98.2° (Epoch: 18 September)

Event Time Altitude Azimuth Distance (km) Brightness Sun altitude
Rises 10:55:21 0° 31° (NNE) 3,228 7.2 -17.1°
Reaches altitude 10° 10:58:08 10° 46° (NE) 2,299 6.6 -16.6°
Maximum altitude 11:02:03 22° 97° (E) 1,607 5.4 -15.8°
Drops below altitude 10° 11:05:56 10° 148° (SSE) 2,291 5.5 -15.0°
Sets 11:08:41 0° 163° (SSE) 3,213 6.1 -14.4°
